[Iaude] MPEC S257: 2018 FS3 [a=1.88,e=0.49,i=4.3,H=21.49]
    mpec at marsden.cfa.harvard.edu 
    mpec at marsden.cfa.harvard.edu
       
    Thu Sep 28 10:07:53 EDT 2023
    
    
  
M.P.E.C. 2023-S257                           Issued 2023 September 28, 14:06 UT
     The Minor Planet Electronic Circulars contain information on unusual
         minor planets, routine data on comets and natural satellites,
         and occasional editorial announcements.  They are published
    on behalf of Division F of the International Astronomical Union by the
          Minor Planet Center, Smithsonian Astrophysical Observatory,
                          Cambridge, MA 02138, U.S.A.
			  
             Prepared using the Tamkin Foundation Computer Network
                              MPC at CFA.HARVARD.EDU
            URL https://www.minorplanetcenter.net/    ISSN 1523-6714
                                    2018 FS3                                    
                           Revision to MPEC 2018-F98                            
Additional Observations:
     K18F03S KC2023 02 12.28720 08 33 51.83 +11 36 38.5                oES257291
     K18F03S KC2023 02 12.32241 08 33 48.24 +11 36 55.8                oES257291
     K18F03S 0C2023 09 11.24356615 52 23.854-14 49 30.75         24.06GVES257T12
Observer details:
291 LPL/Spacewatch II.  Observer R. A. Mastaler.  1.8-m f/2.7 reflector + CCD.
T12 University of Hawaii 88-inch telescope, Maunakea.  Observer D. J. Tholen.
    2.24-m f/10.1 reflector + 2112 x 2112 pixels STA1600 10k CCD.
First and last observations above in comparison with prediction:
Residuals in seconds of arc, reference and Delta-T
230212 291 21.1-  5.4-    230911 T12 36.6-  4.7-    MPO740854   -0.01 days
Orbital elements:
2018 FS3                                            PHA, Earth MOID = 0.0467 AU
Epoch 2023 Sept. 13.0 TT = JDT 2460200.5                Veres                   
M  15.14706              (2000.0)            P               Q                  
n   0.38196555     Peri.   69.15569     -0.21180885     +0.97724522             
a   1.8812792      Node   188.63945     -0.92240777     -0.20373375             
e   0.4857551      Incl.    4.33286     -0.32295652     -0.05902836             
P   2.58           H   21.49          G   0.15           U   0                  
Residuals in seconds of arc
180320 703  0.2+  0.1-    180408 A17  0.3-  0.1-    180510 703  0.2-  0.3-
180320 703  0.1-  0.4-    180408 A17  0.1+  0.4-    180510 703  0.6+  0.7+
180320 703  0.2-  0.1+    180408 A17  0.3-  0.0     180510 703  0.2+  0.2+
180320 G96  0.0   0.0     180409 691  0.1+  0.1-    180513 703  0.8-  0.5-
180320 G96  0.0   0.1+    180409 691  0.1+  0.1-    180513 703  0.4+  0.6+
180320 G96  0.1-  0.1+    180409 691  0.0   0.2-    180513 703  0.6+  0.4-
180320 G96  0.2-  0.1+    180411 691  0.1-  0.1+    180513 703  0.7+  0.0
180320 I52  0.1-  0.2-    180411 691  0.3+  0.0     180517 I52  0.1+  0.2-
180320 I52  0.1+  0.0     180411 703  1.4+  0.8-    180517 I52  0.3+  0.1+
180320 I52  0.1-  0.0     180411 691  0.1-  0.1-    180517 I52  0.0   0.3+
180320 I52  0.1+  0.1-    180411 703  0.1+  0.6+    180517 I52  0.5+  0.1-
180320 474  0.3+  0.0     180411 703  0.7+  0.3-    180518 703  0.7-  0.3-
180320 474  0.1+  0.1+    180411 703  0.8-  0.2-    180518 703  0.1+  0.5-
180320 474  0.2+  0.0     180412 G96  0.1+  0.0     180518 703  0.8-  0.5-
180320 474  0.0   0.5-    180412 G96  0.1+  0.1+    180518 703  0.6+  0.2+
180320 033  0.1+  0.3+    180412 G96  0.1+  0.0     180521 I52  0.1-  0.2-
180320 033  0.1+  0.0     180412 G96  0.2+  0.0     180521 I52  0.1+  0.2+
180320 033  0.1+  0.1+    180412 691  0.2-  0.2+    180521 I52  0.1-  0.0
180321 I52  0.0   0.1-    180412 691  0.3-  0.3+    180521 I52  0.0   0.2-
180321 I52  0.2-  0.0     180412 691  0.1-  0.2+    180523 I52  0.1-  0.1+
180321 I52  0.1+  0.2-    180414 W34  0.2-  0.1+    180523 I52  0.0   0.4-
180321 I52  0.1+  0.1-    180414 W34  0.1-  0.1+    180523 I52  0.1-  0.1-
180321 K61  0.4+  0.9+    180414 W34  0.3+  0.1-    180523 I52  0.1+  0.1+
180321 K61  0.5+  0.5+    180414 691  0.1-  0.0     180611 291  0.3+  0.0
180321 587  0.6+  0.1-    180414 691  0.1-  0.1+    180611 291  0.5+  0.1-
180321 587  0.3+  0.1-    180414 691  0.1+  0.3+    180611 291  0.0   0.0
180321 587  0.1+  0.0     180414 I52  0.0   0.3+    180623 G96  0.4+  0.1+
180321 033  0.2+  0.2-    180414 I52  0.1+  0.0     180623 G96  0.4-  0.1-
180321 033  0.2-  0.5-    180414 I52  0.6+  0.1-    180623 G96  0.5-  0.5+
180321 246  1.3+  0.1-    180414 I52  0.6+  0.3-    180623 G96  0.0   0.1-
180321 246  0.7+  0.3+    180415 691  0.1-  0.1+    180624 I52  0.0   0.1+
180321 246  0.2+  0.8+    180415 691  0.2-  0.2+    180624 I52 (1.0-  1.4-)
180322 I52  0.6-  0.2+    180415 691  0.1+  0.3+    180624 I52  0.6-  1.0-
180322 I52  0.2+  0.0     180416 691  0.4-  0.1-    180624 I52  0.9-  0.6-
180322 I52  1.0+  0.4+    180416 691  0.3-  0.0     180701 291  0.2+  0.1+
180322 H21  0.1+  0.2+    180416 691  0.2-  0.1-    180701 291  0.2-  0.3+
180322 H21  0.2+  0.1-    180416 703  0.1-  0.5-    180701 291  0.2-  0.2+
180322 H21  0.2-  0.2+    180416 703  1.0+  0.5-    180701 I52  0.4-  1.0-
180322 P93  0.5-  0.1-    180416 703  0.3-  0.2+    180701 I52  0.4-  0.1+
180322 P93  0.1+  0.4-    180416 703  0.4-  1.2+    180701 I52  0.5+  0.7-
180322 P93  0.2+  0.4-    180418 691  0.1+  0.0     180702 691  0.1-  0.0
180322 P93  0.3+  0.1-    180418 691  0.0   0.1+    180702 691  0.7-  0.1-
180326 807  0.1-  0.2-    180418 691  0.2-  0.1-    180702 691  0.8-  0.5-
180326 807  0.1-  0.0     180418 246  0.3+  0.3+    180722 691  0.1-  0.0
180326 807  0.2-  0.1-    180418 246  1.3-  0.3+    180722 691  0.1-  0.0
180326 204  0.0   0.2+    180418 246  0.5-  1.0-    180722 691  0.2-  0.1+
180326 204  0.1+  0.0     180418 246  0.5-  0.3+    180724 691  0.2+  0.0
180403 691  0.4-  0.1-    180418 246  0.2+  0.1+    180724 691  0.0   0.2-
180403 691  0.1-  0.1-    180418 246  0.6-  0.0     180724 691  0.2-  0.2-
180403 691  0.0   0.1+    180418 K38  0.0   0.3+    180724 F52  0.2-  0.2+
180404 691  0.3-  0.0     180418 K38  0.2+  0.2+    180725 695  0.1+  0.0
180404 691  0.1-  0.0     180418 K38  0.0   0.2+    180725 695  0.0   0.0
180404 691  0.2-  0.0     180419 291  0.1-  0.1-    180725 695  0.0   0.2+
180404 I52  0.0   0.1-    180419 291  0.1-  0.3-    180813 F51  0.0   0.0
180404 I52  0.1-  0.2+    180419 291  0.1-  0.1-    180813 F51  0.1+  0.0
180404 I52  0.2+  0.1+    180419 246  0.6+  0.9+    180813 F51  0.1+  0.0
180404 I52  0.3-  0.1-    180419 246  0.3+  0.1-    180831 691  0.1-  0.2+
180405 I52  0.0   0.1-    180419 246  0.0   0.8+    180831 691  0.0   0.1-
180405 I52  0.1-  0.2-    180419 246  0.2-  0.2+    180831 691  0.2-  0.0
180405 I52  0.3+  0.4-    180419 246  0.7+  0.2+    180831 I52 (1.2+  0.9+)
180405 I52  0.1+  0.5-    180419 246  1.0+  0.4+    180831 I52  0.5+  0.5+
180405 691  0.0   0.1+    180420 703  0.7+  1.4-    180831 I52  0.0   0.1+
180405 691  0.2-  0.2-    180420 703  0.6+  0.2+    180831 I52  0.2-  0.9-
180405 691  0.3-  0.3-    180420 703  0.0   0.3-    180904 291  0.1+  0.0
180406 691  0.3-  0.2-    180421 691  0.4-  0.0     180904 291  0.0   0.0
180406 691  0.2-  0.1+    180421 691  0.4-  0.3+    180904 291  0.3-  0.1-
180406 691  0.1-  0.0     180421 691  0.6-  0.1-    180905 I52  0.3-  0.2-
180406 246  0.1-  0.6-    180421 I52  0.1+  0.0     180905 I52  0.3-  0.1-
180406 246  0.7+  0.6+    180421 I52  0.2+  0.1+    180905 I52  0.2-  0.0
180406 246  1.5-  0.6+    180421 I52  0.3+  0.1-    180905 I52  0.1-  0.1+
180406 246  0.5-  0.2+    180421 246  0.3-  0.1+    180906 G96  0.1+  0.3-
180406 246  0.3+  0.7+    180421 246  0.8+  0.9-    180906 G96  0.5+  0.4+
180406 246  0.3-  0.8+    180421 246  1.3-  0.9+    180906 G96  0.2-  0.1+
180407 691  0.2-  0.1-    180421 246  0.8-  0.6+    180906 G96  0.3-  0.1+
180407 691  0.3+  0.1-    180421 246  0.0   0.2+    180907 691  0.0   0.0
180407 691  0.1-  0.2-    180421 K38  0.4+  0.0     180907 691  0.2+  0.6+
180407 A17  0.1+  0.0     180421 K38  0.0   0.2+    180907 691  0.2-  0.1+
180407 A17  0.5+  0.2-    180422 K38  0.0   0.1+    180908 D29  0.1-  0.2+
180407 A17  0.9+  0.3-    180423 703  0.5-  0.3+    180908 D29  0.2-  0.1+
180408 691  0.1-  0.1+    180423 703  0.1-  0.5-    180908 D29  0.6-  0.3+
180408 H45  0.1+  0.3+    180423 703  0.3+  0.5+    180913 691  0.6+  0.4+
180408 H45  0.2-  0.2+    180423 703  0.3-  0.3-    180913 691  0.0   0.2-
180408 H45  0.3+  0.5+    180423 T05  0.3-  0.6+    180913 691  0.2-  0.1+
180408 691  0.3-  0.1+    180423 T05  0.5-  0.2+    180913 G96  0.6+  0.2+
180408 H45  0.2-  0.3-    180423 T05  0.2-  0.6+    180913 G96  0.0   0.2+
180408 H45  0.3-  0.3+    180423 T05  0.0   0.3-    180913 G96  0.2-  0.2+
180408 H45  0.2-  0.1+    180423 T05  1.1+  0.7-    180913 G96  0.2-  0.2+
180408 691  0.3-  0.2+    180429 695  0.2+  0.0     180917 291  0.2+  0.1+
180408 703  0.3+  0.4+    180429 695  0.2-  0.3+    180917 291  0.0   0.0
180408 703  0.3+  0.2-    180429 695  0.1+  0.2+    180917 291  0.2-  0.1+
180408 703  0.1+  0.4-    180503 691  0.5-  0.6+    180929 691 (1.6-  0.8-)
180408 703  0.8-  0.0     180503 691  0.2-  0.3-    180929 691  0.1-  0.4-
180408 I52  0.2-  0.0     180503 691  0.8-  0.1-    180929 691  0.2-  0.3-
180408 I52  0.1-  0.0     180504 703  0.0   0.1+    180930 F52  0.0   0.1-
180408 I52  0.1-  0.1+    180504 703  0.9-  0.3+    180930 F52  0.0   0.1+
180408 I52  0.1+  0.1-    180504 703  0.0   1.1+    180930 F52  0.5+  0.0
180408 246  0.4+  0.3-    180505 691  0.5+  0.3-    181010 F52  0.2+  0.0
180408 246  0.6-  0.0     180505 691  0.3-  0.1-    181010 F52  0.5+  0.4-
180408 246  0.5-  0.3-    180505 691  0.0   0.0     181010 F52  0.1+  0.1+
180408 246  0.6+  0.6-    180508 I52  0.3+  0.0     181010 F52  0.2-  0.0
180408 246  0.5-  0.2-    180508 I52  0.0   0.2-    230212 291  0.2+  0.4-
180408 246  0.4-  0.8-    180508 I52  0.0   0.3+    230212 291  0.4-  0.3+
180408 246  0.2+  0.2+    180510 703  0.8+  0.1-    230911 T12  0.1+  0.0
Ephemeris:
2018 FS3                 a,e,i = 1.88, 0.49, 4                   q = 0.9674
Date    TT    R. A. (2000) Decl.     Delta      r    Elong.  Phase     V
2023 08 29    14 43 01.3 -10 12 00   0.8104  1.0123    66.5    66.2    23.4
...
2023 09 13    16 01 53.3 -15 20 56   0.8069  1.0772    71.9    62.7    23.4
...
2023 09 21    16 45 21.3 -17 23 17   0.8258  1.1202    74.8    59.9    23.5
...
2023 09 27    17 17 41.9 -18 29 28   0.8499  1.1553    76.7    57.6    23.5
2023 09 28    17 23 01.5 -18 38 16   0.8547  1.1613    77.0    57.2    23.5
2023 09 29    17 28 19.7 -18 46 25   0.8598  1.1674    77.2    56.8    23.6
...
2023 10 05    17 59 31.4 -19 22 09   0.8950  1.2050    78.7    54.5    23.6
...
2023 10 13    18 39 02.1 -19 36 49   0.9543  1.2573    80.2    51.4    23.8
...
2023 10 28    19 45 16.7 -18 42 38   1.0984  1.3595    80.9    46.2    24.1
A. U. Tomatic                (C) Copyright 2023 MPC           M.P.E.C. 2023-S257
    
    
More information about the Iaude
mailing list